Location: Gleizolles
(44.4833°N, 6.7667°E)
Time: 11:37:47
(UTC+00:00)

Envisat - Pass Details

Date: 15 December 2021
Orbit: 764 x 766 km, 98.2° (Epoch: 20 January)

Event Time Altitude Azimuth Distance (km) Brightness Sun altitude
Rises 05:21:54 0° 5° (N) 3,243 6.1 -17.1°
Reaches altitude 10° 05:24:21 10° 358° (N) 2,312 5.3 -16.7°
Maximum altitude 05:29:00 37° 292° (WNW) 1,173 3.4 -15.9°
Drops below altitude 10° 05:33:38 10° 226° (SW) 2,296 5.2 -15.1°
Sets 05:36:03 0° 218° (SW) 3,218 6.0 -14.7°
